Location: Beuerbach
(48.1459°N, 10.9174°E)
Time: 03:41:00
(UTC+00:00)

Cosmos 1455 - Pass Details

Date: 13 August 2024
Orbit: 431 x 444 km, 82.5° (Epoch: 11 September)

Event Time Altitude Azimuth Distance (km) Brightness Sun altitude
Exits shadow 02:20:46 - 158° (SSE) 1,679 4.6 -15.7°
Reaches altitude 10° 02:21:02 10° 157° (SSE) 1,578 4.4 -15.7°
Maximum altitude 02:24:08 32° 92° (E) 798 3.6 -15.3°
Drops below altitude 10° 02:27:13 10° 28° (NNE) 1,578 5.9 -14.9°
Sets 02:29:24 0° 18° (NNE) 2,449 6.8 -14.7°
